Location: Austin
(30.3000°N, 97.7500°W)
Time: 01:46:02
(UTC-05:00)

ATLAS 5 CENTAUR R/B - Pass Details

Date: 15 May 2024
Orbit: 420 x 1168 km, 63.3° (Epoch: 29 May)

Event Time Altitude Azimuth Distance (km) Brightness Sun altitude
Rises 23:25:19 0° 317° (NW) 3,286 6.4 -32.4°
Reaches altitude 10° 23:27:47 10° 307° (NW) 2,471 5.4 -32.7°
Enters shadow 23:32:21 32° 256° (WSW) 1,554 3.6 -33.3°
